CSN3671 ZGGG-ZSNB

Flight info

Callsign CSN3671
Flight time 1h 31m
Altitude 31100
Route BOVMA9 BOVMA W41 OMDUP G471 PLT/K0843S1070 A599 ELNEX G204 SHZ SHZ81A
Aircraft A320/M-SDE3FGHIRWY/LB1

Departure

Time 2026-05-08 12:10
Airport Guangzhou Baiyun International Airport (ZGGG)

Arrival

Time 2026-05-08 13:41
Airport Ningbo Lishe International Airport (ZSNB)
Time Latitude Longitude Altitude Speed Heading
2026-05-08 11:58 23.38340 113.30055 54 ft 0 kts 52°
2026-05-08 12:02 23.38331 113.30043 50 ft 4 kts 56°
2026-05-08 12:02 23.38317 113.30018 51 ft 4 kts 66°
2026-05-08 12:02 23.38308 113.29990 50 ft 4 kts 80°
2026-05-08 12:02 23.38307 113.29963 51 ft 4 kts 103°
2026-05-08 12:03 23.38318 113.29941 52 ft 2 kts 141°
2026-05-08 12:03 23.38319 113.29940 53 ft 0 kts 142°
2026-05-08 12:04 23.38312 113.29945 50 ft 2 kts 142°
2026-05-08 12:05 23.38296 113.29959 54 ft 4 kts 142°
2026-05-08 12:05 23.38270 113.29982 58 ft 6 kts 142°
2026-05-08 12:05 23.38234 113.30013 56 ft 8 kts 142°
2026-05-08 12:05 23.38189 113.30053 57 ft 9 kts 133°
2026-05-08 12:06 23.38164 113.30124 58 ft 11 kts 103°
2026-05-08 12:06 23.38146 113.30211 58 ft 13 kts 103°
2026-05-08 12:06 23.38123 113.30313 56 ft 15 kts 103°
2026-05-08 12:06 23.38097 113.30428 53 ft 16 kts 111°
2026-05-08 12:07 23.37990 113.30446 55 ft 18 kts 195°
2026-05-08 12:07 23.37865 113.30410 53 ft 20 kts 194°
2026-05-08 12:07 23.37724 113.30371 56 ft 22 kts 194°
2026-05-08 12:07 23.37616 113.30388 55 ft 15 kts 118°
2026-05-08 12:08 23.37600 113.30457 52 ft 7 kts 102°
2026-05-08 12:08 23.37589 113.30516 56 ft 9 kts 102°
2026-05-08 12:08 23.37628 113.30551 51 ft 9 kts
2026-05-08 12:08 23.37691 113.30566 53 ft 10 kts 13°
2026-05-08 12:09 23.37810 113.30598 53 ft 41 kts 14°
2026-05-08 12:09 23.38312 113.30728 55 ft 104 kts 13°
2026-05-08 12:09 23.39178 113.30964 56 ft 151 kts 14°
2026-05-08 12:09 23.40310 113.31260 220 ft 176 kts 12°
2026-05-08 12:10 23.41512 113.31581 805 ft 178 kts 14°
2026-05-08 12:10 23.42701 113.31934 1384 ft 180 kts 17°
2026-05-08 12:10 23.43962 113.32317 1659 ft 201 kts 17°
2026-05-08 12:10 23.45369 113.32746 2008 ft 220 kts 17°
2026-05-08 12:11 23.46866 113.33200 2714 ft 225 kts 17°
2026-05-08 12:11 23.48394 113.33662 3451 ft 231 kts 16°
2026-05-08 12:11 23.49959 113.34132 4177 ft 236 kts 15°
2026-05-08 12:11 23.51566 113.34610 4883 ft 243 kts 16°
2026-05-08 12:12 23.53222 113.35102 5630 ft 249 kts 15°
2026-05-08 12:12 23.54912 113.35606 6354 ft 255 kts 15°
2026-05-08 12:12 23.56659 113.36021 7040 ft 259 kts
2026-05-08 12:12 23.58445 113.36354 7773 ft 262 kts
2026-05-08 12:13 23.60225 113.36714 8491 ft 266 kts 13°
2026-05-08 12:13 23.61912 113.37578 9167 ft 273 kts 36°
2026-05-08 12:13 23.63230 113.39101 9673 ft 287 kts 58°
2026-05-08 12:13 23.63949 113.41187 10058 ft 303 kts 77°
2026-05-08 12:14 23.64412 113.43490 10315 ft 321 kts 77°
2026-05-08 12:14 23.64918 113.45949 10450 ft 344 kts 77°
2026-05-08 12:14 23.65463 113.48568 10563 ft 364 kts 77°
2026-05-08 12:14 23.66045 113.51329 10688 ft 383 kts 76°
2026-05-08 12:15 23.66651 113.54177 10803 ft 399 kts 76°
2026-05-08 12:15 23.67291 113.57183 10990 ft 413 kts 76°
2026-05-08 12:15 23.67941 113.60259 11422 ft 419 kts 77°
2026-05-08 12:15 23.68595 113.63370 11913 ft 423 kts 77°
2026-05-08 12:16 23.69251 113.66511 12416 ft 427 kts 77°
2026-05-08 12:16 23.69911 113.69682 12919 ft 431 kts 77°
2026-05-08 12:16 23.70580 113.72885 13419 ft 435 kts 77°
2026-05-08 12:16 23.71257 113.76113 13913 ft 439 kts 76°
2026-05-08 12:17 23.71942 113.79371 14324 ft 443 kts 76°
2026-05-08 12:17 23.72626 113.82624 14692 ft 448 kts 76°
2026-05-08 12:17 23.73325 113.85953 15089 ft 451 kts 76°
2026-05-08 12:17 23.74026 113.89306 15490 ft 455 kts 76°
2026-05-08 12:18 23.74728 113.92679 15882 ft 457 kts 77°
2026-05-08 12:18 23.75433 113.96073 16259 ft 460 kts 77°
2026-05-08 12:18 23.76143 113.99492 16633 ft 463 kts 77°
2026-05-08 12:18 23.76614 114.01762 16886 ft 465 kts 77°
2026-05-08 12:19 23.77569 114.06382 17366 ft 468 kts 77°
2026-05-08 12:19 23.78277 114.09812 17703 ft 471 kts 77°
2026-05-08 12:19 23.78996 114.13302 18028 ft 473 kts 77°
2026-05-08 12:19 23.79721 114.16817 18336 ft 476 kts 77°
2026-05-08 12:20 23.80452 114.20350 18625 ft 478 kts 76°
2026-05-08 12:20 23.81463 114.23812 18909 ft 479 kts 66°
2026-05-08 12:20 23.82974 114.27049 19198 ft 479 kts 56°
2026-05-08 12:20 23.84228 114.29028 19391 ft 478 kts 50°
2026-05-08 12:21 23.87303 114.32517 19787 ft 477 kts 37°
2026-05-08 12:21 23.89908 114.34680 20080 ft 477 kts 34°
2026-05-08 12:21 23.92575 114.36848 20364 ft 479 kts 33°
2026-05-08 12:21 23.95249 114.39029 20606 ft 481 kts 33°
2026-05-08 12:22 23.97932 114.41226 20854 ft 483 kts 34°
2026-05-08 12:22 24.00625 114.43435 21091 ft 484 kts 34°
2026-05-08 12:22 24.02411 114.44902 21256 ft 485 kts 34°
2026-05-08 12:22 24.06028 114.47875 21570 ft 487 kts 34°
2026-05-08 12:23 24.07825 114.49351 21735 ft 488 kts 34°
2026-05-08 12:23 24.11416 114.52301 22150 ft 486 kts 34°
2026-05-08 12:23 24.14120 114.54522 22466 ft 485 kts 33°
2026-05-08 12:23 24.16819 114.56739 22810 ft 485 kts 33°
2026-05-08 12:24 24.18604 114.58207 23010 ft 485 kts 33°
2026-05-08 12:24 24.21298 114.60425 23308 ft 484 kts 33°
2026-05-08 12:24 24.23985 114.62638 23625 ft 483 kts 33°
2026-05-08 12:24 24.26672 114.64853 23906 ft 483 kts 33°
2026-05-08 12:25 24.29358 114.67064 24201 ft 483 kts 33°
2026-05-08 12:25 24.32916 114.69995 24598 ft 482 kts 33°
2026-05-08 12:25 24.35594 114.72204 24897 ft 482 kts 33°
2026-05-08 12:25 24.38273 114.74414 25201 ft 482 kts 33°
2026-05-08 12:26 24.40952 114.76624 25528 ft 482 kts 33°
2026-05-08 12:26 24.42725 114.78088 25742 ft 482 kts 32°
2026-05-08 12:26 24.45403 114.80302 25996 ft 482 kts 32°
2026-05-08 12:26 24.48083 114.82520 26309 ft 483 kts 32°
2026-05-08 12:27 24.51667 114.85490 26767 ft 482 kts 32°
2026-05-08 12:27 24.53437 114.86960 26973 ft 482 kts 32°
2026-05-08 12:27 24.56112 114.89181 27298 ft 482 kts 32°
2026-05-08 12:27 24.59767 114.91891 27761 ft 475 kts 23°
2026-05-08 12:28 24.61771 114.92940 27988 ft 470 kts 17°
2026-05-08 12:28 24.64856 114.94041 28356 ft 463 kts
2026-05-08 12:28 24.67951 114.94796 28749 ft 462 kts
2026-05-08 12:28 24.71082 114.95561 29162 ft 461 kts
2026-05-08 12:29 24.74205 114.96335 29569 ft 460 kts
2026-05-08 12:29 24.77324 114.97111 29973 ft 459 kts
2026-05-08 12:29 24.80438 114.97881 30339 ft 458 kts
2026-05-08 12:29 24.83548 114.98643 30681 ft 458 kts
2026-05-08 12:30 24.86656 114.99402 31015 ft 457 kts
2026-05-08 12:30 24.89719 115.00146 31160 ft 457 kts
2026-05-08 12:30 24.96030 115.01672 31199 ft 471 kts
2026-05-08 12:31 25.02514 115.03237 31192 ft 480 kts
2026-05-08 12:31 25.09054 115.04836 31193 ft 482 kts
2026-05-08 12:32 25.15556 115.06437 31197 ft 482 kts
2026-05-08 12:32 25.22102 115.08050 31218 ft 482 kts
2026-05-08 12:33 25.28652 115.09647 31212 ft 481 kts
2026-05-08 12:33 25.35193 115.09881 31208 ft 464 kts 346°
2026-05-08 12:34 25.41216 115.07911 31206 ft 450 kts 330°
2026-05-08 12:34 25.46889 115.04997 31206 ft 450 kts 330°
2026-05-08 12:35 25.52567 115.02075 31220 ft 450 kts 329°
2026-05-08 12:35 25.58241 114.99151 31233 ft 450 kts 329°
2026-05-08 12:36 25.63874 114.96247 31230 ft 449 kts 329°
2026-05-08 12:36 25.69541 114.93326 31230 ft 449 kts 330°
2026-05-08 12:37 25.75361 114.90761 31225 ft 459 kts 343°
2026-05-08 12:37 25.78579 114.90506 31223 ft 471 kts 358°
2026-05-08 12:37 25.81838 114.91194 31237 ft 485 kts 12°
2026-05-08 12:38 25.84912 114.92852 31239 ft 500 kts 28°
2026-05-08 12:38 25.87562 114.95417 31232 ft 511 kts 41°
2026-05-08 12:38 25.92403 115.01155 31217 ft 513 kts 41°
2026-05-08 12:39 25.97264 115.06966 31211 ft 514 kts 41°
2026-05-08 12:39 26.02143 115.12776 31216 ft 514 kts 41°
2026-05-08 12:40 26.07031 115.18584 31215 ft 514 kts 41°
2026-05-08 12:40 26.11878 115.24359 31217 ft 514 kts 41°
2026-05-08 12:41 26.16755 115.30185 31218 ft 514 kts 41°
2026-05-08 12:41 26.21628 115.36014 31224 ft 514 kts 42°
2026-05-08 12:42 26.26493 115.41841 31221 ft 513 kts 41°
2026-05-08 12:42 26.31357 115.47670 31238 ft 514 kts 41°
2026-05-08 12:43 26.36190 115.53466 31226 ft 514 kts 41°
2026-05-08 12:43 26.41057 115.59311 31228 ft 514 kts 41°
2026-05-08 12:44 26.45920 115.65163 31226 ft 514 kts 41°
2026-05-08 12:44 26.50783 115.71014 31247 ft 514 kts 41°
2026-05-08 12:45 26.55608 115.76831 31234 ft 514 kts 41°
2026-05-08 12:45 26.60461 115.82700 31220 ft 514 kts 41°
2026-05-08 12:46 26.65318 115.88576 31219 ft 515 kts 41°
2026-05-08 12:46 26.70176 115.94457 31219 ft 515 kts 41°
2026-05-08 12:47 26.75005 116.00309 31236 ft 516 kts 41°
2026-05-08 12:47 26.79873 116.06211 31229 ft 516 kts 41°
2026-05-08 12:48 26.84737 116.12122 31228 ft 517 kts 41°
2026-05-08 12:48 26.89603 116.18052 31222 ft 517 kts 42°
2026-05-08 12:49 26.94470 116.23987 31241 ft 517 kts 41°
2026-05-08 12:49 26.99341 116.29858 31244 ft 518 kts 40°
2026-05-08 12:50 27.04256 116.35759 31235 ft 518 kts 40°
2026-05-08 12:50 27.09167 116.41684 31241 ft 518 kts 41°
2026-05-08 12:51 27.16518 116.50597 31251 ft 519 kts 40°
2026-05-08 12:52 27.21399 116.56502 31250 ft 519 kts 40°
2026-05-08 12:52 27.28894 116.65268 31243 ft 518 kts 39°
2026-05-08 12:53 27.33927 116.71065 31237 ft 518 kts 39°
2026-05-08 12:53 27.38946 116.76902 31256 ft 519 kts 39°
2026-05-08 12:54 27.43924 116.82717 31246 ft 520 kts 39°
2026-05-08 12:54 27.48929 116.88592 31238 ft 520 kts 40°
2026-05-08 12:55 27.53943 116.94472 31242 ft 520 kts 39°
2026-05-08 12:55 27.58990 117.00315 31246 ft 520 kts 39°
2026-05-08 12:56 27.64054 117.06137 31260 ft 520 kts 39°
2026-05-08 12:56 27.69083 117.11937 31256 ft 521 kts 39°
2026-05-08 12:57 27.74134 117.17800 31247 ft 521 kts 39°
2026-05-08 12:57 27.79176 117.23676 31266 ft 521 kts 40°
2026-05-08 12:58 27.84220 117.29555 31283 ft 522 kts 39°
2026-05-08 12:58 27.89234 117.35400 31277 ft 521 kts 39°
2026-05-08 12:59 27.94277 117.41275 31268 ft 520 kts 40°
2026-05-08 12:59 27.99328 117.47172 31284 ft 522 kts 40°
2026-05-08 13:00 28.04368 117.53089 31318 ft 522 kts 40°
2026-05-08 13:00 28.09377 117.58965 31315 ft 522 kts 40°
2026-05-08 13:01 28.14416 117.64878 31310 ft 522 kts 40°
2026-05-08 13:01 28.19452 117.70796 31310 ft 521 kts 40°
2026-05-08 13:02 28.24488 117.76705 31308 ft 521 kts 40°
2026-05-08 13:02 28.29520 117.82635 31308 ft 521 kts 40°
2026-05-08 13:03 28.34511 117.88529 31310 ft 521 kts 40°
2026-05-08 13:03 28.39537 117.94469 31311 ft 521 kts 40°
2026-05-08 13:04 28.44536 118.00439 31325 ft 522 kts 41°
2026-05-08 13:04 28.49468 118.06506 31323 ft 523 kts 42°
2026-05-08 13:05 28.54338 118.12559 31321 ft 522 kts 42°
2026-05-08 13:05 28.59250 118.18637 31319 ft 521 kts 41°
2026-05-08 13:06 28.64167 118.24701 31317 ft 521 kts 41°
2026-05-08 13:06 28.69085 118.30771 31331 ft 521 kts 41°
2026-05-08 13:07 28.73960 118.36816 31323 ft 522 kts 42°
2026-05-08 13:07 28.78872 118.42912 31314 ft 522 kts 42°
2026-05-08 13:08 28.83788 118.49006 31315 ft 522 kts 42°
2026-05-08 13:08 28.88698 118.55119 31335 ft 523 kts 42°
2026-05-08 13:09 28.93576 118.61197 31337 ft 523 kts 42°
2026-05-08 13:09 28.98486 118.67318 31322 ft 523 kts 42°
2026-05-08 13:10 29.03396 118.73449 31330 ft 523 kts 42°
2026-05-08 13:10 29.08304 118.79581 31358 ft 523 kts 43°
2026-05-08 13:11 29.13178 118.85691 31348 ft 523 kts 43°
2026-05-08 13:11 29.18078 118.91845 31351 ft 523 kts 43°
2026-05-08 13:12 29.22973 118.97996 31348 ft 523 kts 43°
2026-05-08 13:12 29.25407 119.01058 30883 ft 518 kts 43°
2026-05-08 13:12 29.27836 119.04121 29835 ft 522 kts 44°
2026-05-08 13:13 29.30280 119.07207 28662 ft 524 kts 44°
2026-05-08 13:13 29.32699 119.10270 27524 ft 526 kts 44°
2026-05-08 13:13 29.35159 119.13381 26366 ft 527 kts 44°
2026-05-08 13:13 29.37630 119.16499 25513 ft 530 kts 44°
2026-05-08 13:14 29.40113 119.19637 25138 ft 532 kts 45°
2026-05-08 13:14 29.42600 119.22790 24920 ft 534 kts 45°
2026-05-08 13:14 29.45083 119.25945 24791 ft 530 kts 45°
2026-05-08 13:14 29.47547 119.29086 24837 ft 529 kts 45°
2026-05-08 13:15 29.50006 119.32224 24833 ft 528 kts 45°
2026-05-08 13:15 29.52462 119.35358 24836 ft 528 kts 45°
2026-05-08 13:15 29.54888 119.38449 24834 ft 528 kts 45°
2026-05-08 13:15 29.57349 119.41582 24833 ft 528 kts 45°
2026-05-08 13:16 29.59650 119.44885 24831 ft 532 kts 54°
2026-05-08 13:16 29.61397 119.48639 24840 ft 535 kts 66°
2026-05-08 13:16 29.62503 119.52726 24857 ft 537 kts 79°
2026-05-08 13:16 29.62926 119.56975 24832 ft 535 kts 90°
2026-05-08 13:17 29.62849 119.61245 24705 ft 532 kts 93°
2026-05-08 13:17 29.62742 119.65451 23964 ft 523 kts 92°
2026-05-08 13:17 29.62641 119.69602 23077 ft 516 kts 92°
2026-05-08 13:17 29.62554 119.73698 22211 ft 509 kts 92°
2026-05-08 13:18 29.62476 119.77742 21390 ft 503 kts 92°
2026-05-08 13:18 29.62402 119.81699 21016 ft 501 kts 91°
2026-05-08 13:18 29.62323 119.85704 20805 ft 501 kts 92°
2026-05-08 13:18 29.62239 119.89710 20845 ft 502 kts 92°
2026-05-08 13:19 29.62150 119.93719 20833 ft 502 kts 92°
2026-05-08 13:19 29.62060 119.97728 20838 ft 502 kts 92°
2026-05-08 13:19 29.61966 120.01738 20836 ft 502 kts 92°
2026-05-08 13:19 29.61870 120.05745 20833 ft 502 kts 92°
2026-05-08 13:20 29.61772 120.09757 20835 ft 502 kts 92°
2026-05-08 13:20 29.61677 120.13772 20829 ft 504 kts 92°
2026-05-08 13:20 29.61588 120.17737 20653 ft 501 kts 92°
2026-05-08 13:20 29.61496 120.21707 19844 ft 495 kts 92°
2026-05-08 13:21 29.61403 120.25637 19062 ft 490 kts 92°
2026-05-08 13:21 29.61312 120.29525 18279 ft 484 kts 92°
2026-05-08 13:21 29.61224 120.33354 17366 ft 471 kts 92°
2026-05-08 13:21 29.61139 120.37076 16075 ft 460 kts 92°
2026-05-08 13:22 29.61053 120.40696 14922 ft 447 kts 92°
2026-05-08 13:22 29.60968 120.44223 13912 ft 436 kts 92°
2026-05-08 13:22 29.60884 120.47633 13360 ft 431 kts 92°
2026-05-08 13:22 29.60798 120.51065 13137 ft 429 kts 92°
2026-05-08 13:23 29.60711 120.54500 12989 ft 428 kts 92°
2026-05-08 13:23 29.60626 120.57916 13034 ft 428 kts 92°
2026-05-08 13:23 29.60539 120.61334 13024 ft 422 kts 92°
2026-05-08 13:23 29.60453 120.64612 13027 ft 399 kts 92°
2026-05-08 13:24 29.60372 120.67712 13030 ft 378 kts 92°
2026-05-08 13:24 29.60294 120.70654 13028 ft 359 kts 92°
2026-05-08 13:24 29.60221 120.73455 13028 ft 343 kts 92°
2026-05-08 13:24 29.60148 120.76166 13037 ft 346 kts 92°
2026-05-08 13:25 29.60128 120.78919 13025 ft 345 kts 86°
2026-05-08 13:25 29.60446 120.81583 13021 ft 329 kts 77°
2026-05-08 13:25 29.61090 120.84064 12697 ft 320 kts 68°
2026-05-08 13:25 29.62017 120.86360 12149 ft 314 kts 62°
2026-05-08 13:26 29.62994 120.88591 11947 ft 312 kts 62°
2026-05-08 13:26 29.63951 120.90810 11727 ft 307 kts 64°
2026-05-08 13:26 29.64639 120.93122 11141 ft 305 kts 76°
2026-05-08 13:26 29.64914 120.95525 10617 ft 302 kts 86°
2026-05-08 13:27 29.64918 120.97943 10265 ft 302 kts 88°
2026-05-08 13:27 29.64919 121.00341 9974 ft 299 kts 88°
2026-05-08 13:27 29.64921 121.02719 9658 ft 296 kts 88°
2026-05-08 13:27 29.64926 121.05044 9342 ft 294 kts 88°
2026-05-08 13:28 29.64932 121.07381 9042 ft 291 kts 87°
2026-05-08 13:28 29.64938 121.09697 8737 ft 289 kts 87°
2026-05-08 13:28 29.64939 121.11991 8455 ft 286 kts 87°
2026-05-08 13:28 29.64939 121.14259 8145 ft 282 kts 89°
2026-05-08 13:29 29.64941 121.16501 7844 ft 279 kts 88°
2026-05-08 13:29 29.64944 121.18711 7587 ft 275 kts 89°
2026-05-08 13:29 29.64946 121.20867 7283 ft 271 kts 89°
2026-05-08 13:29 29.64945 121.23022 6751 ft 268 kts 89°
2026-05-08 13:30 29.64946 121.25144 6206 ft 263 kts 90°
2026-05-08 13:30 29.64947 121.27230 5680 ft 259 kts 90°
2026-05-08 13:30 29.64947 121.29278 5225 ft 253 kts 90°
2026-05-08 13:30 29.64946 121.31305 5123 ft 254 kts 90°
2026-05-08 13:31 29.64947 121.33344 5135 ft 255 kts 90°
2026-05-08 13:31 29.64945 121.35353 5082 ft 253 kts 90°
2026-05-08 13:31 29.64943 121.37376 5104 ft 254 kts 90°
2026-05-08 13:31 29.64941 121.39407 5048 ft 253 kts 90°
2026-05-08 13:32 29.64940 121.41427 4979 ft 252 kts 90°
2026-05-08 13:32 29.64940 121.43436 4911 ft 251 kts 90°
2026-05-08 13:32 29.64937 121.45444 4847 ft 251 kts 91°
2026-05-08 13:32 29.64932 121.47445 4770 ft 250 kts 91°
2026-05-08 13:33 29.64926 121.49439 4688 ft 249 kts 90°
2026-05-08 13:33 29.64921 121.51436 4630 ft 250 kts 91°
2026-05-08 13:33 29.64836 121.53404 4559 ft 249 kts 99°
2026-05-08 13:33 29.64377 121.55323 4481 ft 249 kts 107°
2026-05-08 13:34 29.63858 121.57196 4404 ft 241 kts 107°
2026-05-08 13:34 29.63360 121.58995 4343 ft 230 kts 106°
2026-05-08 13:34 29.62892 121.60704 4278 ft 218 kts 104°
2026-05-08 13:34 29.62826 121.62372 4213 ft 205 kts 78°
2026-05-08 13:35 29.63461 121.63827 4153 ft 208 kts 50°
2026-05-08 13:35 29.64616 121.64844 4093 ft 211 kts 37°
2026-05-08 13:35 29.65831 121.65753 4027 ft 210 kts 37°
2026-05-08 13:35 29.67021 121.66642 3965 ft 199 kts 37°
2026-05-08 13:36 29.68160 121.67491 3913 ft 195 kts 35°
2026-05-08 13:36 29.69465 121.67884 3851 ft 203 kts 356°
2026-05-08 13:36 29.70722 121.67119 3705 ft 213 kts 311°
2026-05-08 13:36 29.71536 121.65679 3555 ft 215 kts 304°
2026-05-08 13:37 29.72352 121.64220 3397 ft 218 kts 305°
2026-05-08 13:37 29.73186 121.62763 3133 ft 218 kts 304°
2026-05-08 13:37 29.74020 121.61311 2848 ft 217 kts 305°
2026-05-08 13:37 29.74840 121.59883 2561 ft 216 kts 305°
2026-05-08 13:38 29.75644 121.58481 2310 ft 203 kts 305°
2026-05-08 13:38 29.76402 121.57159 2012 ft 192 kts 305°
2026-05-08 13:38 29.77100 121.55942 1781 ft 170 kts 305°
2026-05-08 13:38 29.77716 121.54867 1548 ft 155 kts 304°
2026-05-08 13:39 29.78296 121.53857 1342 ft 148 kts 304°
2026-05-08 13:39 29.78859 121.52875 1143 ft 146 kts 304°
2026-05-08 13:39 29.79414 121.51910 971 ft 143 kts 304°
2026-05-08 13:39 29.79951 121.50977 785 ft 141 kts 304°
2026-05-08 13:40 29.80495 121.50033 584 ft 139 kts 304°
2026-05-08 13:40 29.81019 121.49115 367 ft 138 kts 304°
2026-05-08 13:40 29.81540 121.48190 181 ft 138 kts 304°
2026-05-08 13:40 29.82070 121.47270 28 ft 138 kts 303°
2026-05-08 13:41 29.82522 121.46482 19 ft 83 kts 303°
2026-05-08 13:41 29.82705 121.46161 20 ft 33 kts 302°
2026-05-08 13:41 29.82801 121.45932 20 ft 24 kts 280°
2026-05-08 13:41 29.82815 121.45811 19 ft 7 kts 275°
2026-05-08 13:42 29.82821 121.45742 18 ft 10 kts 275°
2026-05-08 13:42 29.82770 121.45712 17 ft 11 kts 153°
2026-05-08 13:42 29.82697 121.45734 17 ft 13 kts 205°
2026-05-08 13:42 29.82614 121.45672 17 ft 16 kts 213°
2026-05-08 13:43 29.82531 121.45696 20 ft 13 kts 138°
2026-05-08 13:43 29.82451 121.45704 17 ft 12 kts 124°
2026-05-08 13:43 29.82413 121.45780 18 ft 12 kts 123°
2026-05-08 13:43 29.82357 121.45848 17 ft 11 kts 188°
2026-05-08 13:44 29.82336 121.45834 17 ft 3 kts 213°
2026-05-08 13:44 29.82311 121.45815 18 ft 6 kts 212°
2026-05-08 13:44 29.82300 121.45807 17 ft 0 kts 212°